This is the latest recevied weather packets stored in our database for station/object VE9LJW. If no packets are shown the sender has not sent any weather packets the latest 10 day(s).
| Time | Temp. | Humidity | Pressure | Rain* | Wind** | Luminosity | Snow |
|---|---|---|---|---|---|---|---|
| 1777675117 | 13.89° C | 86% | 1003.4 hPa | 0 mm | - | 28 W/m² | - |
| 1777674813 | 13.89° C | 86% | 1003.4 hPa | 0 mm | - | 24 W/m² | - |
| 1777674509 | 14.44° C | 86% | 1003.2 hPa | 0 mm | - | 23 W/m² | - |
| 1777674208 | 14.44° C | 86% | 1003 hPa | 0 mm | - | 35 W/m² | - |
| 1777673904 | 14.44° C | 87% | 1002.8 hPa | 0 mm | - | 55 W/m² | - |
| 1777673600 | 15° C | 87% | 1002.9 hPa | 0 mm | - | 59 W/m² | - |
| 1777673299 | 15° C | 87% | 1002.8 hPa | 0 mm | - | 60 W/m² | - |
| 1777672995 | 15° C | 85% | 1002.7 hPa | 0 mm | - | 51 W/m² | - |
| 1777672692 | 15° C | 85% | 1002.6 hPa | 0 mm | - | 51 W/m² | - |
| 1777672388 | 15° C | 85% | 1002.6 hPa | 0 mm | - | 60 W/m² | - |
| 1777672083 | 15° C | 83% | 1002.4 hPa | 0 mm | - | 82 W/m² | - |
| 1777671779 | 15.56° C | 83% | 1002.6 hPa | 0 mm | - | 119 W/m² | - |
| 1777671475 | 15.56° C | 84% | 1002.4 hPa | 0 mm | - | 116 W/m² | - |
| 1777671172 | 15° C | 85% | 1002.3 hPa | 0 mm | - | 100 W/m² | - |
| 1777670868 | 15.56° C | 83% | 1002.5 hPa | 0 mm | - | 72 W/m² | - |
| 1777670564 | 15.56° C | 83% | 1002.3 hPa | 0 mm | - | 100 W/m² | - |
| 1777670262 | 15.56° C | 83% | 1002.4 hPa | 0 mm | - | 130 W/m² | - |
| 1777669958 | 15.56° C | 86% | 1002.4 hPa | 0 mm | - | 157 W/m² | - |
| 1777669656 | 15.56° C | 84% | 1002.4 hPa | 0 mm | - | 199 W/m² | - |
| 1777669352 | 15.56° C | 84% | 1002.4 hPa | 0 mm | - | 193 W/m² | - |
| 1777669049 | 15° C | 85% | 1002.3 hPa | 0 mm | - | 192 W/m² | - |
| 1777668746 | 15.56° C | 85% | 1002.4 hPa | 0 mm | - | 175 W/m² | - |
| 1777668443 | 15.56° C | 84% | 1002.2 hPa | 0 mm | - | 174 W/m² | - |
| 1777668140 | 15° C | 86% | 1002.1 hPa | 0 mm | - | 146 W/m² | - |
| 1777667836 | 15.56° C | 87% | 1002.2 hPa | 0 mm | - | 135 W/m² | - |
* Rain latest hour (hover to see other rain measurements)
** Current wind speed in m/s (hover to see current wind gust speed)